Location: Appleton
(44.2618°N, 88.4157°W)
Time: 00:45:12
(UTC+00:00)

Tiros 1 despin weight - Pass Details

Date: 01 March 2021
Orbit: 593 x 641 km, 48.2° (Epoch: 10 April)

Event Time Altitude Azimuth Distance (km) Brightness Sun altitude
Exits shadow 09:40:06 37° 59° (ENE) 988 ? -30.8°
Drops below altitude 10° 09:43:14 10° 83° (E) 2,032 ? -30.3°
Sets 09:45:37 0° 88° (E) 2,941 ? -29.9°
